Regional Weather Roundup
Issued by NWS

Home | Current Version | Previous Version | Graphics & Text | Print | Product List | Glossary On
Versions: 1 2 3 4 5 6 7 8 9 10 11 12 13 14 15 16 17 18 19 20 21 22 23 24 25 26 27 28 29 30 31 32 33 34 35 36 37 38 39 40 41 42 43 44 45 46 47 48 49 50
000
ASUS43 KLSX 222307
RWRMO

WEATHER SUMMARY FOR MISSOURI
NATIONAL WEATHER SERVICE SPRINGFIELD MO
600 PM CDT FRI JUL 22 2016

NOTE: "FAIR" INDICATES FEW OR NO CLOUDS BELOW 12,000 FEET WITH NO
       SIGNIFICANT WEATHER AND/OR OBSTRUCTIONS TO VISIBILITY.
       CURRENT SKY AND/OR WEATHER CONDITIONS ARE NOT AVAILABLE FOR
       CHILLICOTHE AND FARMINGTON.

MOZ001>031-035>038-043-044-053-054-230000-
...NORTHERN AND WESTERN MISSOURI...

CITY           SKY/WX    TMP DP  RH WIND       PRES   REMARKS
KANSAS CTY INT PTSUNNY   90  79  70 S8        29.95F HX 106
KANSAS C DTWN  SUNNY     95  77  55 S13       29.93F HX 109
LEE`S SUMMIT   SUNNY     94  77  57 S9        29.97F HX 108
ST JOSEPH      SUNNY     93  79  63 S8        29.93F HX 110
CHILLICOTHE      N/A     91  77  63 S7        29.98R HX 104
KIRKSVILLE     MOSUNNY   88  74  63 SW6       30.00F HX  96

$$
MOZ066>068-077>081-088>096-101>105-230000-
...SOUTHWEST MISSOURI...

CITY           SKY/WX    TMP DP  RH WIND       PRES   REMARKS
SPRINGFIELD    SUNNY     96  67  38 SW7       30.01S HX 100
JOPLIN         SUNNY     94  69  44 SW8       29.99S HX  99
BRANSON        PTSUNNY   93  73  52 CALM      30.03F HX 102

$$
MOZ032>034-039>042-045>050-055>058-069>072-230000-
...CENTRAL MISSOURI...

CITY           SKY/WX    TMP DP  RH WIND       PRES   REMARKS
COLUMBIA       CLOUDY    88  78  72 SE6       30.00F HX 101
JEFFERSON CITY CLOUDY    88  77  69 E8        29.98F HX 100
ROLLA          CLOUDY    87  73  62 SW3       30.01F HX  94
SEDALIA        CLOUDY    93  75  55 SW8       30.00S HX 104
WHITEMAN AFB   MOSUNNY   92  77  61 S12       29.98S HX 105
OSAGE BEACH    MOSUNNY   91  76  61 S3        30.01F HX 103

$$
MOZ051-052-059>065-230000-
...EAST CENTRAL MISSOURI...

CITY           SKY/WX    TMP DP  RH WIND       PRES   REMARKS
ST LOUIS INTL  PTSUNNY   86  72  62 E7        30.00F HX  92
SPIRIT OF STL  MOSUNNY   85  75  72 S6        29.99F HX  93
ST CHARLES     CLOUDY    85  77  77 E9        29.98F HX  95

$$
MOZ072>076-082>087-097>100-106>115-230000-
...SOUTH CENTRAL AND SOUTHEAST MISSOURI...

CITY           SKY/WX    TMP DP  RH WIND       PRES   REMARKS
CAPE GIRARDEAU CLOUDY    89  75  63 N3        29.97F HX  99
FARMINGTON     CLOUDY    84  74  71 N3        30.03F HX  91
POPLAR BLUFF   MOSUNNY   93  76  57 N6        29.96F HX 105
WEST PLAINS    SUNNY     95  71  45 CALM      30.04F HX 102

$$



USA.gov is the U.S. government's official web portal to all federal, state and local government web resources and services.